Regional Weather Roundup
Issued by NWS

Home | Current Version | Previous Version | Graphics & Text | Print | Product List | Glossary On
Versions: 1 2 3 4 5 6 7 8 9 10 11 12 13 14 15 16 17 18 19 20 21 22 23 24 25 26 27 28 29 30 31 32 33 34 35 36 37 38 39 40 41 42 43 44 45 46 47 48 49 50
000
ASUS43 KIND 231809
RWRIN

WEATHER ROUNDUP FOR INDIANA
NATIONAL WEATHER SERVICE INDIANAPOLIS IN
100 PM EST MON JAN 23 2017

NOTE: "FAIR" INDICATES FEW OR NO CLOUDS BELOW 12,000 FEET WITH NO
SIGNIFICANT WEATHER AND/OR OBSTRUCTIONS TO VISIBILITY.

* - STATION DOES NOT REPORT WEATHER SUCH AS PRECIPITATION OR FOG.

+ - STATION NOT QUALITY CONTROLLED BY THE NATIONAL WEATHER SERVICE.
    USE DATA WITH CAUTION...ESPECIALLY DEWPOINT AND RELATIVE
    HUMIDITY OBSERVATIONS.

INZ001>003-010>013-019-020-231900-
NORTHWEST INDIANA

CITY           SKY/WX    TMP DP  RH WIND       PRES   REMARKS
GARY /AIRPORT/ CLOUDY    41  36  81 NW10      29.77F
KNOX *+        CLOUDY    37  28  70 N14       29.70F
LA PORTE +     CLOUDY    38  37  98 N16       29.71F FOG
6HR MIN TEMP:  37; 6HR MAX TEMP:  38;

MICHIGAN CITY+ CLOUDY    37  37 100 N9        29.74F
MONTICELLO +   CLOUDY    41  38  87 NW16      29.69F
6HR MIN TEMP:  39; 6HR MAX TEMP:  41;

RENSSELAER +   CLOUDY    39  37  93 NW13G20   29.73F
VALPARAISO     CLOUDY    40  38  93 N12       29.73F FOG
6HR MIN TEMP:  38; 6HR MAX TEMP:  40;


$$

LMZ046-743>745-231900-
SOUTHERN LAKE MICHIGAN

STATION/POSITION TIME  TEMP    WIND        PRES    WAVE
                       AIR SEA DIR/SP/G            HT
                 (UTC) (F)     (DEG/KT/KT) (MB)    (FT)
BURNS HARBOR     1740   36     330/  6/  8 1008.1F
MICHIGAN CITY    1740   36     360/  9/  9   N/A

$$

INZ004-005-014>016-021>024-231900-
NORTH CENTRAL INDIANA

CITY           SKY/WX    TMP DP  RH WIND       PRES   REMARKS
ELKHART        CLOUDY    39  39 100 NW8       29.69F
GOSHEN         CLOUDY    42  39  89 N10       29.67F FOG
6HR MIN TEMP:  41; 6HR MAX TEMP:  42;

LOGANSPORT +   CLOUDY    41  37  87 N14       29.69S
PERU/GRISSOM   CLOUDY    41  41 100 NW13      29.65F
6HR MIN TEMP:  41; 6HR MAX TEMP:  42;

ROCHESTER +    CLOUDY    43  41  93 N10       29.68F
SOUTH BEND     CLOUDY    39  38  96 N15       29.70F FOG
6HR MIN TEMP:  38; 6HR MAX TEMP:  39;

WARSAW +       CLOUDY    41  41 100 N9        29.67F FOG

$$

INZ006>009-017-018-025>027-231900-
NORTHEAST INDIANA

CITY           SKY/WX    TMP DP  RH WIND       PRES   REMARKS
ANGOLA *+      CLOUDY    39  30  70 N6        29.66S VSB 1
AUBURN +       CLOUDY    43  41  93 N9        29.66S FOG
FORT WAYNE     DRIZZLE   45  43  93 N9        29.65F FOG
6HR MIN TEMP:  44; 6HR MAX TEMP:  45; 6HR PCP: TRACE;

HUNTINGTON +   CLOUDY    43  42  96 N8        29.65F FOG
6HR MIN TEMP:  42; 6HR MAX TEMP:  44;

KENDALLVILLE + CLOUDY    42  42 100 N8        29.66S FOG

$$

INZ028-029-035-036-043>045-051>053-231900-
WEST CENTRAL INDIANA

CITY           SKY/WX    TMP DP  RH WIND       PRES   REMARKS
CRAWFORDSVL +  CLOUDY    38  38 100 NW15      29.70S FOG
6HR MIN TEMP:  37; 6HR MAX TEMP:  38;

GREENCASTLE +  CLOUDY    37  37 100 NW13      29.69F FOG
LAFAYETTE      CLOUDY    40  38  93 NW13      29.70F
6HR MIN TEMP:  39; 6HR MAX TEMP:  40;

TERRE HAUTE    CLOUDY    41  37  86 N15       29.72F
6HR MIN TEMP:  41; 6HR MAX TEMP:  42;


$$

INZ030>032-037>040-046>048-054>057-064-065-231900-
CENTRAL INDIANA

CITY           SKY/WX    TMP DP  RH WIND       PRES   REMARKS
ANDERSON       CLOUDY    45 N/A N/A N12       29.64F FOG
CP ATTERBURY + CLOUDY    45  41  87 NW16      29.64F
FISHERS *+     CLOUDY    41  41 100 N9        29.65F
FRANKFORT +    CLOUDY    43  41  94 N17       29.69F FOG
6HR MIN TEMP:  42; 6HR MAX TEMP:  43;

GREENWOOD *+   CLOUDY    45  44  97 NW14      29.64F
6HR MIN TEMP:  44; 6HR MAX TEMP:  45;

INDIANAPOLIS   DRIZZLE   42  40  92 NW15      29.65F FOG
6HR MIN TEMP:  42; 6HR MAX TEMP:  44; 6HR PCP: TRACE;

-EAGLE CREEK   CLOUDY    42  39  89 NW17      29.65F FOG
6HR MIN TEMP:  42; 6HR MAX TEMP:  44;

KOKOMO +       CLOUDY    42  41  96 N14       29.67F FOG
6HR MIN TEMP:  41; 6HR MAX TEMP:  43; 6HR PCP: TRACE;

MARION +       FOG       43  43 100 N12       29.65F VSB 1
MT COMFORT *+  CLOUDY    43  43 100 N14       29.64F
SHELBYVILLE    CLOUDY    46  43  89 N18       29.61F FOG
6HR MIN TEMP:  45; 6HR MAX TEMP:  46;

ZIONSVILLE +   CLOUDY    39  39  99 N16G22    29.66F FOG
6HR MIN TEMP:  39; 6HR MAX TEMP:  41;


$$

INZ033-034-041-042-049-050-058-059-231900-
EAST CENTRAL INDIANA

CITY           SKY/WX    TMP DP  RH WIND       PRES   REMARKS
MUNCIE         CLOUDY    47  45  93 N9        29.63S FOG
6HR MIN TEMP:  45; 6HR MAX TEMP:  47; 6HR PCP: TRACE;


$$

INZ060-061-067>069-081>083-085>088-231900-
SOUTHWEST INDIANA

CITY           SKY/WX    TMP DP  RH WIND       PRES   REMARKS
EVANSVILLE     CLOUDY    44  37  76 NW13G21   29.72F
6HR MIN TEMP:  43; 6HR MAX TEMP:  44;

HUNTINGBURG *+ CLOUDY    43  39  86 NW16G24   29.68S
6HR MIN TEMP:  43; 6HR MAX TEMP:  44;

WASHINGTON +   CLOUDY    42  40  91 NW21G26   29.69F FOG
6HR MIN TEMP:  42; 6HR MAX TEMP:  43;


$$

INZ062-063-066-070>080-084-089>092-231900-
SOUTH CENTRAL AND SOUTHEAST INDIANA

CITY           SKY/WX    TMP DP  RH WIND       PRES   REMARKS
BLOOMINGTON    CLOUDY    42  38  85 N12G18    29.65F
6HR MIN TEMP:  42; 6HR MAX TEMP:  43;

MADISON *+     CLOUDY    45  43  93 NW13G18   29.60S
NORTH VERNON + CLOUDY   N/A N/A N/A NW17G23   29.61S HAZE
SEYMOUR +      CLOUDY    48  43  81 NW14G23   29.62F

$$





USA.gov is the U.S. government's official web portal to all federal, state and local government web resources and services.